CAPE
0 0 2 0 3 22 28 28 39 45 26 15 28 46 71 31 42 92 103 59 42 89 94 64 53 54 46 21 0 2 0 23 22 1 1 3 108 179 97 115 63 91 54
0 0 0 16 32 42 36 37 45 49 19 10 31 36 40 22 15 25 30 80 78 66 108 68 72 58 60 31 4 5 0 7 3 0 3 14 80 94 77 32 92 56 105
0 0 33 28 59 51 53 39 67 47 47 4 19 21 24 0 0 0 0 45 113 49 49 91 102 71 51 17 0 0 0 0 0 1 10 35 65 82 43 72 15 46 45
2 0 22 34 22 34 20 37 54 30 34 17 11 18 15 0 0 0 0 48 81 59 104 105 96 44 22 0 0 0 0 0 0 5 14 10 52 51 58 38 29 21 10
4 0 21 12 20 26 21 60 38 52 40 22 9 24 28 0 0 0 0 10 93 94 97 98 57 6 20 0 0 0 0 0 11 13 5 8 20 12 20 20 6 2 0
8 0 0 29 10 15 21 29 55 13 32 33 10 23 49 0 0 0 0 0 58 115 86 64 51 19 0 0 0 0 31 29 12 12 10 31 27 12 30 0 1 7 9
0 0 0 21 3 1 12 14 30 62 34 38 11 40 40 0 0 0 0 0 64 113 139 129 50 1 0 0 0 9 23 110 115 23 4 0 0 3 13 4 0 0 0
0 21 0 3 0 0 11 9 23 86 68 23 28 29 43 0 0 0 0 6 46 86 104 69 117 66 0 0 0 0 0 0 23 7 8 14 0 0 9 0 0 0 0
0 16 0 0 0 0 3 6 21 54 34 37 6 2 0 0 0 0 0 0 35 42 14 124 68 15 2 3 0 0 0 0 3 2 2 20 4 1 0 0 0 0 0
0 0 0 0 0 4 6 11 40 73 60 15 7 63 6 16 0 0 0 0 27 40 41 61 9 12 8 0 0 5 17 2 0 0 14 2 26 0 0 0 0 0 0
32 0 2 2 0 6 15 60 40 77 67 93 52 92 124 75 113 8 0 0 4 6 13 50 49 29 3 2 5 7 4 0 1 20 0 0 0 0 0 0 0 0 0
0 2 16 20 17 33 50 69 126 155 111 82 85 107 110 138 66 46 3 2 4 31 77 74 104 3 0 0 4 10 10 1 13 0 0 0 0 0 0 0 0 0 0
0 29 45 57 52 87 88 121 93 76 75 75 91 44 35 43 79 9 6 6 4 10 8 24 4 8 25 9 5 2 10 1 0 0 0 0 0 0 0 0 0 0 0
24 53 70 47 56 75 26 37 91 121 55 17 8 12 15 21 118 74 12 33 13 0 1 0 35 20 4 26 29 34 4 0 0 0 0 0 0 0 0 0 0 0 0
43 71 77 54 30 66 32 48 77 152 48 19 1 6 19 63 2 0 0 0 0 0 0 6 141 111 73 12 7 30 0 0 0 0 0 0 0 0 0 0 0 0 0
74 37 38 49 73 65 89 145 37 5 0 0 0 0 0 0 0 2 0 0 0 9 5 72 96 37 19 7 40 4 0 0 0 0 0 0 0 0 0 0 0 0 0
77 90 55 3 18 57 123 99 92 64 2 5 2 0 0 0 10 0 0 0 30 11 106 34 27 17 29 27 24 0 0 0 0 0 0 0 0 0 0 0 0 0 0
47 1 10 6 39 88 88 67 37 98 187 85 2 0 0 0 0 0 0 15 65 16 53 17 8 18 23 33 15 0 0 0 0 0 0 0 0 0 0 0 0 0 0
34 37 35 23 44 31 18 22 47 90 105 27 1 0 0 0 0 1 0 54 6 1 1 3 15 19 18 0 0 0 0 0 0 0 0 0 0 0 0 0 0 0 0
23 0 0 3 0 23 52 56 41 81 31 9 0 0 0 0 19 35 4 0 0 0 27 9 17 22 0 0 0 0 0 0 0 0 0 0 0 0 0 0 0 0 0
28 48 0 0 0 36 39 19 69 22 1 0 5 0 0 14 26 5 0 0 10 15 19 12 5 0 0 0 0 0 0 0 0 0 0 0 0 0 0 0 0 0 0
11 36 23 30 58 41 25 45 12 0 0 0 0 0 0 0 7 0 0 18 14 19 17 16 0 0 0 0 0 0 0 0 0 0 0 0 0 0 4 4 2 3 2
18 33 28 61 63 12 15 5 0 0 0 0 0 1 0 7 8 6 4 13 28 24 18 0 0 0 0 0 0 0 0 0 0 0 0 0 5 2 0 1 16 28 24
1 20 19 62 15 4 0 0 0 0 0 0 0 0 3 7 8 10 16 15 23 17 22 0 0 0 0 0 0 0 0 0 0 4 1 2 0 0 0 20 23 16 22
1 63 66 45 1 0 0 0 0 0 0 0 0 0 5 0 4 6 13 16 11 32 32 0 0 0 0 0 0 0 16 24 14 16 18 8 2 17 33 19 26 15 1
25 45 15 0 0 0 0 0 0 0 0 0 0 1 5 7 17 8 15 1 17 26 20 11 0 0 0 0 0 0 0 12 16 25 27 10 20 40 38 22 31 2 5
CIN
-0 -0 -0 -0 -0 -1 -1 -1 -0 -1 -2 -4 -2 -3 -4 -23 -14 -14 -15 -20 -18 -20 -25 -23 -33 -45 -46 -28 -6 -24 -0 -10 -7 -10 -8 -19 -25 -23 -39 -52 -48 -17 -23
-0 -0 -0 -0 -0 -0 -0 -0 -0 -1 -6 -4 -2 -4 -6 -24 -30 -30 -18 -14 -18 -13 -11 -31 -22 -8 -16 -30 -10 -11 -0 -12 -14 -1 -13 -17 -20 -41 -59 -20 -43 -30 -2
-0 -0 -1 -0 -0 -1 -4 -19 -4 -3 -5 -2 -3 -2 -4 -0 -0 -0 -0 -12 -8 -32 -38 -32 -10 -19 -20 -21 -0 -0 -0 -0 -0 -16 -9 -4 -11 -13 -62 -42 -30 -38 -33
-0 -0 -0 -0 -0 -0 -0 -1 -6 -24 -10 -2 -2 -3 -9 -0 -0 -0 -0 -18 -24 -27 -19 -19 -18 -16 -18 -0 -0 -0 -0 -0 -0 -12 -4 -20 -13 -23 -16 -21 -12 -16 -21
-0 -0 -1 -1 -0 -0 -0 -0 -6 -4 -10 -3 -2 -2 -5 -0 -0 -0 -0 -16 -21 -5 -12 -9 -22 -29 -31 -0 -0 -0 -0 -0 -7 -1 -1 -11 -18 -29 -24 -12 -10 -17 -0
-1 -0 -0 -3 -0 -1 -0 -0 -1 -5 -9 -1 -0 -1 -5 -0 -0 -0 -0 -11 -32 -9 -5 -6 -25 -37 -0 -0 -0 -0 -22 -15 -22 -12 -8 -9 -3 -8 -4 -0 -2 -3 -3
-0 -0 -0 -0 -0 -0 -0 -1 -1 -0 -6 -0 -1 -1 -11 -0 -0 -0 -0 -0 -33 -22 -14 -3 -5 -5 -0 -0 -0 -15 -16 -14 -11 -18 -11 -0 -0 -2 -14 -11 -0 -0 -0
-0 -2 -0 -0 -0 -0 -0 -1 -0 -1 -1 -1 -1 -1 -1 -0 -0 -0 -0 -83 -43 -23 -29 -16 -7 -18 -0 -0 -0 -0 -0 -3 -3 -13 -26 -15 -0 -0 -5 -0 -0 -0 -0
-0 -0 -0 -0 -0 -0 -1 -0 -0 -0 -1 -2 -2 -3 -0 -0 -0 -0 -0 -0 -18 -18 -45 -14 -23 -22 -6 -2 -0 -0 -0 -0 -1 -3 -19 -7 -0 -2 -0 -0 -0 -0 -0
-0 -0 -0 -0 -0 -0 -0 -0 -0 -1 -2 -11 -12 -6 -2 -20 -0 -0 -0 -0 -21 -22 -41 -36 -0 -3 -1 -0 -0 -43 -19 -13 -0 -0 -4 -13 -12 -0 -0 -0 -0 -0 -0
-1 -0 -0 -0 -0 -0 -0 -0 -1 -4 -9 -9 -12 -22 -13 -41 -20 -20 -1 -0 -39 -42 -26 -12 -32 -4 -0 -5 -2 -5 -43 -0 -3 -4 -0 -0 -0 -0 -0 -0 -0 -0 -0
-0 -0 -0 -0 -2 -3 -1 -1 -3 -5 -8 -21 -32 -45 -43 -51 -31 -13 -1 -1 -1 -85 -35 -21 -18 -17 -0 -0 -2 -3 -1 -8 -1 -0 -0 -0 -0 -0 -0 -0 -0 -0 -0
-0 -0 -0 -1 -1 -0 -1 -4 -9 -41 -37 -28 -18 -20 -33 -34 -76 -44 -12 -16 -11 -5 -11 -43 -20 -11 -0 -16 -3 -5 -34 -8 -0 -0 -0 -0 -0 -0 -0 -0 -0 -0 -0
-0 -0 -1 -0 -1 -0 -3 -14 -35 -9 -14 -16 -21 -31 -25 -21 -19 -47 -65 -64 -28 -0 -6 -0 -35 -1 -23 -2 -7 -8 -25 -0 -0 -0 -0 -0 -0 -0 -0 -0 -0 -0 -0
-0 -1 -0 -1 -25 -10 -28 -24 -15 -14 -36 -43 -25 -45 -24 -10 -25 -0 -0 -0 -0 -0 -0 -19 -23 -26 -22 -10 -8 -9 -0 -0 -0 -0 -0 -0 -0 -0 -0 -0 -0 -0 -0
-0 -1 -1 -3 -6 -10 -12 -17 -27 -13 -0 -0 -0 -13 -37 -0 -0 -2 -0 -0 -7 -12 -25 -13 -15 -5 -7 -17 -3 -2 -0 -0 -0 -0 -0 -0 -0 -0 -0 -0 -0 -0 -0
-0 -11 -4 -12 -8 -8 -3 -13 -18 -24 -2 -3 -0 -0 -0 -0 -0 -0 -0 -0 -9 -2 -10 -14 -5 -18 -2 -4 -0 -0 -0 -0 -0 -0 -0 -0 -0 -0 -0 -0 -0 -0 -0
-0 -3 -4 -4 -9 -1 -7 -12 -12 -16 -9 -48 -7 -0 -0 -0 -0 -0 -0 -6 -2 -9 -3 -5 -4 -5 -5 -0 -0 -0 -0 -0 -0 -0 -0 -0 -0 -0 -0 -0 -0 -0 -0
-0 -1 -7 -24 -5 -17 -15 -19 -7 -3 -6 -6 -3 -0 -0 -0 -0 -2 -0 -2 -6 -4 -6 -11 -2 -1 -4 -0 -0 -0 -0 -0 -0 -0 -0 -0 -0 -0 -0 -0 -0 -0 -0
-1 -3 -0 -1 -0 -7 -3 -2 -2 -4 -11 -11 -4 -0 -0 -0 -3 -1 -5 -0 -0 -0 -0 -3 -4 -1 -0 -0 -0 -0 -0 -0 -0 -0 -0 -0 -0 -0 -0 -0 -0 -0 -0
-1 -7 -0 -0 -1 -3 -3 -10 -3 -0 -0 -0 -16 -0 -0 -9 -1 -12 -0 -0 -1 -1 -1 -1 -3 -0 -0 -0 -0 -0 -0 -0 -0 -0 -0 -0 -0 -0 -0 -0 -0 -0 -0
-1 -7 -16 -6 -3 -4 -7 -5 -0 -0 -0 -0 -0 -4 -0 -0 -8 -3 -0 -1 -3 -1 -3 -8 -0 -0 -0 -0 -0 -0 -0 -0 -0 -0 -0 -0 -0 -0 -0 -0 -0 -0 -0
-3 -0 -0 -0 -0 -1 -13 -1 -0 -0 -0 -0 -0 -0 -1 -0 -2 -0 -0 -4 -1 -2 -8 -0 -0 -0 -0 -0 -0 -0 -0 -0 -0 -0 -0 -0 -0 -0 -0 -0 -12 -27 -7
-1 -1 -0 -1 -0 -4 -0 -0 -0 -0 -0 -0 -0 -0 -0 -2 -4 -2 -2 -19 -6 -11 -0 -0 -0 -0 -0 -0 -0 -0 -0 -0 -0 -0 -0 -0 -0 -0 -0 -14 -11 -7 -14
-1 -0 -0 -2 -0 -0 -0 -0 -0 -0 -0 -0 -0 -0 -0 -0 -2 -0 -13 -1 -6 -2 -3 -0 -0 -0 -0 -0 -0 -0 -0 -0 -1 -0 -0 -3 -0 -1 -19 -12 -6 -6 -0
-0 -3 -1 -0 -0 -0 -0 -0 -0 -0 -0 -0 -0 -1 -0 -0 -2 -12 -3 -0 -6 -2 -3 -6 -0 -0 -0 -0 -0 -0 -0 -0 -1 -6 -2 -0 -6 -33 -16 -14 -5 -1 -2
Wind_Speed
nan nan nan nan nan nan nan nan nan nan nan nan nan nan nan nan nan nan 12 nan nan nan nan nan nan nan nan nan nan nan nan nan nan nan nan nan 53 54 nan 52 nan nan nan
nan nan nan nan nan nan nan nan nan nan nan nan nan nan nan nan nan nan nan nan nan nan 27 nan nan nan nan nan nan nan nan nan nan nan nan nan nan nan nan nan nan nan 33
nan nan nan nan nan nan nan nan nan nan nan nan nan nan nan nan nan nan nan nan 25 nan nan nan 37 nan nan nan nan nan nan nan nan nan nan nan nan nan nan nan nan nan nan
nan nan nan nan nan nan nan nan nan nan nan nan nan nan nan nan nan nan nan nan nan nan 37 40 nan nan nan nan nan nan nan nan nan nan nan nan nan nan nan nan nan nan nan
nan nan nan nan nan nan nan nan nan nan nan nan nan nan nan nan nan nan nan nan nan nan nan nan nan nan nan nan nan nan nan nan nan nan nan nan nan nan nan nan nan nan nan
nan nan nan nan nan nan nan nan nan nan nan nan nan nan nan nan nan nan nan nan nan 39 nan nan nan nan nan nan nan nan nan nan nan nan nan nan nan nan nan nan nan nan nan
nan nan nan nan nan nan nan nan nan nan nan nan nan nan nan nan nan nan nan nan nan 41 43 47 nan nan nan nan nan nan nan 18 16 nan nan nan nan nan nan nan nan nan nan
nan nan nan nan nan nan nan nan nan nan nan nan nan nan nan nan nan nan nan nan nan nan 45 nan 52 nan nan nan nan nan nan nan nan nan nan nan nan nan nan nan nan nan nan
nan nan nan nan nan nan nan nan nan nan nan nan nan nan nan nan nan nan nan nan nan nan nan 50 nan nan nan nan nan nan nan nan nan nan nan nan nan nan nan nan nan nan nan
nan nan nan nan nan nan nan nan nan nan nan nan nan nan nan nan nan nan nan nan nan nan nan nan nan nan nan nan nan nan nan nan nan nan nan nan nan nan nan nan nan nan nan
nan nan nan nan nan nan nan nan nan nan nan nan nan nan 31 nan 36 nan nan nan nan nan nan nan nan nan nan nan nan nan nan nan nan nan nan nan nan nan nan nan nan nan nan
nan nan nan nan nan nan nan nan 17 18 19 nan nan 26 33 43 nan nan nan nan nan nan nan nan 51 nan nan nan nan nan nan nan nan nan nan nan nan nan nan nan nan nan nan
nan nan nan nan nan nan nan 15 nan nan nan nan nan nan nan nan nan nan nan nan nan nan nan nan nan nan nan nan nan nan nan nan nan nan nan nan nan nan nan nan nan nan nan
nan nan nan nan nan nan nan nan nan 15 nan nan nan nan nan nan 44 nan nan nan nan nan nan nan nan nan nan nan nan nan nan nan nan nan nan nan nan nan nan nan nan nan nan
nan nan nan nan nan nan nan nan nan 18 nan nan nan nan nan nan nan nan nan nan nan nan nan nan 35 22 nan nan nan nan nan nan nan nan nan nan nan nan nan nan nan nan nan
nan nan nan nan nan nan nan 11 nan nan nan nan nan nan nan nan nan nan nan nan nan nan nan nan nan nan nan nan nan nan nan nan nan nan nan nan nan nan nan nan nan nan nan
nan nan nan nan nan nan 11 nan nan nan nan nan nan nan nan nan nan nan nan nan nan nan 45 nan nan nan nan nan nan nan nan nan nan nan nan nan nan nan nan nan nan nan nan
nan nan nan nan nan nan nan nan nan nan 26 nan nan nan nan nan nan nan nan nan nan nan nan nan nan nan nan nan nan nan nan nan nan nan nan nan nan nan nan nan nan nan nan
nan nan nan nan nan nan nan nan nan nan 27 nan nan nan nan nan nan nan nan nan nan nan nan nan nan nan nan nan nan nan nan nan nan nan nan nan nan nan nan nan nan nan nan
nan nan nan nan nan nan nan nan nan nan nan nan nan nan nan nan nan nan nan nan nan nan nan nan nan nan nan nan nan nan nan nan nan nan nan nan nan nan nan nan nan nan nan
nan nan nan nan nan nan nan nan nan nan nan nan nan nan nan nan nan nan nan nan nan nan nan nan nan nan nan nan nan nan nan nan nan nan nan nan nan nan nan nan nan nan nan
nan nan nan nan nan nan nan nan nan nan nan nan nan nan nan nan nan nan nan nan nan nan nan nan nan nan nan nan nan nan nan nan nan nan nan nan nan nan nan nan nan nan nan
nan nan nan nan nan nan nan nan nan nan nan nan nan nan nan nan nan nan nan nan nan nan nan nan nan nan nan nan nan nan nan nan nan nan nan nan nan nan nan nan nan nan nan
nan nan nan nan nan nan nan nan nan nan nan nan nan nan nan nan nan nan nan nan nan nan nan nan nan nan nan nan nan nan nan nan nan nan nan nan nan nan nan nan nan nan nan
nan nan nan nan nan nan nan nan nan nan nan nan nan nan nan nan nan nan nan nan nan nan nan nan nan nan nan nan nan nan nan nan nan nan nan nan nan nan nan nan nan nan nan
nan nan nan nan nan nan nan nan nan nan nan nan nan nan nan nan nan nan nan nan nan nan nan nan nan nan nan nan nan nan nan nan nan nan nan nan nan nan nan nan nan nan nan
Wind_Direction
nan nan nan nan nan nan nan nan nan nan nan nan nan nan nan nan nan nan 331 nan nan nan nan nan nan nan nan nan nan nan nan nan nan nan nan nan 296 295 nan 289 nan nan nan
nan nan nan nan nan nan nan nan nan nan nan nan nan nan nan nan nan nan nan nan nan nan 313 nan nan nan nan nan nan nan nan nan nan nan nan nan nan nan nan nan nan nan 283
nan nan nan nan nan nan nan nan nan nan nan nan nan nan nan nan nan nan nan nan 324 nan nan nan 322 nan nan nan nan nan nan nan nan nan nan nan nan nan nan nan nan nan nan
nan nan nan nan nan nan nan nan nan nan nan nan nan nan nan nan nan nan nan nan nan nan 326 328 nan nan nan nan nan nan nan nan nan nan nan nan nan nan nan nan nan nan nan
nan nan nan nan nan nan nan nan nan nan nan nan nan nan nan nan nan nan nan nan nan nan nan nan nan nan nan nan nan nan nan nan nan nan nan nan nan nan nan nan nan nan nan
nan nan nan nan nan nan nan nan nan nan nan nan nan nan nan nan nan nan nan nan nan 336 nan nan nan nan nan nan nan nan nan nan nan nan nan nan nan nan nan nan nan nan nan
nan nan nan nan nan nan nan nan nan nan nan nan nan nan nan nan nan nan nan nan nan 338 333 332 nan nan nan nan nan nan nan 332 328 nan nan nan nan nan nan nan nan nan nan
nan nan nan nan nan nan nan nan nan nan nan nan nan nan nan nan nan nan nan nan nan nan 334 nan 335 nan nan nan nan nan nan nan nan nan nan nan nan nan nan nan nan nan nan
nan nan nan nan nan nan nan nan nan nan nan nan nan nan nan nan nan nan nan nan nan nan nan 339 nan nan nan nan nan nan nan nan nan nan nan nan nan nan nan nan nan nan nan
nan nan nan nan nan nan nan nan nan nan nan nan nan nan nan nan nan nan nan nan nan nan nan nan nan nan nan nan nan nan nan nan nan nan nan nan nan nan nan nan nan nan nan
nan nan nan nan nan nan nan nan nan nan nan nan nan nan 344 nan 341 nan nan nan nan nan nan nan nan nan nan nan nan nan nan nan nan nan nan nan nan nan nan nan nan nan nan
nan nan nan nan nan nan nan nan 310 315 326 nan nan 345 338 345 nan nan nan nan nan nan nan nan 340 nan nan nan nan nan nan nan nan nan nan nan nan nan nan nan nan nan nan
nan nan nan nan nan nan nan 308 nan nan nan nan nan nan nan nan nan nan nan nan nan nan nan nan nan nan nan nan nan nan nan nan nan nan nan nan nan nan nan nan nan nan nan
nan nan nan nan nan nan nan nan nan 317 nan nan nan nan nan nan 336 nan nan nan nan nan nan nan nan nan nan nan nan nan nan nan nan nan nan nan nan nan nan nan nan nan nan
nan nan nan nan nan nan nan nan nan 330 nan nan nan nan nan nan nan nan nan nan nan nan nan nan 350 17 nan nan nan nan nan nan nan nan nan nan nan nan nan nan nan nan nan
nan nan nan nan nan nan nan 316 nan nan nan nan nan nan nan nan nan nan nan nan nan nan nan nan nan nan nan nan nan nan nan nan nan nan nan nan nan nan nan nan nan nan nan
nan nan nan nan nan nan 292 nan nan nan nan nan nan nan nan nan nan nan nan nan nan nan 354 nan nan nan nan nan nan nan nan nan nan nan nan nan nan nan nan nan nan nan nan
nan nan nan nan nan nan nan nan nan nan 327 nan nan nan nan nan nan nan nan nan nan nan nan nan nan nan nan nan nan nan nan nan nan nan nan nan nan nan nan nan nan nan nan
nan nan nan nan nan nan nan nan nan nan 323 nan nan nan nan nan nan nan nan nan nan nan nan nan nan nan nan nan nan nan nan nan nan nan nan nan nan nan nan nan nan nan nan
nan nan nan nan nan nan nan nan nan nan nan nan nan nan nan nan nan nan nan nan nan nan nan nan nan nan nan nan nan nan nan nan nan nan nan nan nan nan nan nan nan nan nan
nan nan nan nan nan nan nan nan nan nan nan nan nan nan nan nan nan nan nan nan nan nan nan nan nan nan nan nan nan nan nan nan nan nan nan nan nan nan nan nan nan nan nan
nan nan nan nan nan nan nan nan nan nan nan nan nan nan nan nan nan nan nan nan nan nan nan nan nan nan nan nan nan nan nan nan nan nan nan nan nan nan nan nan nan nan nan
nan nan nan nan nan nan nan nan nan nan nan nan nan nan nan nan nan nan nan nan nan nan nan nan nan nan nan nan nan nan nan nan nan nan nan nan nan nan nan nan nan nan nan
nan nan nan nan nan nan nan nan nan nan nan nan nan nan nan nan nan nan nan nan nan nan nan nan nan nan nan nan nan nan nan nan nan nan nan nan nan nan nan nan nan nan nan
nan nan nan nan nan nan nan nan nan nan nan nan nan nan nan nan nan nan nan nan nan nan nan nan nan nan nan nan nan nan nan nan nan nan nan nan nan nan nan nan nan nan nan
nan nan nan nan nan nan nan nan nan nan nan nan nan nan nan nan nan nan nan nan nan nan nan nan nan nan nan nan nan nan nan nan nan nan nan nan nan nan nan nan nan nan nan